Location: Albany
(42.6526°N, 73.7562°W)
Time: 05:03:48
(UTC+00:00)

Cosmos 158 Rocket - Pass Details

Date: 19 November 2019
Orbit: 699 x 793 km, 74.0° (Epoch: 07 December)

Event Time Altitude Azimuth Distance (km) Brightness Sun altitude
Rises 22:34:01 0° 183° (S) 3,256 7.5 -12.0°
Reaches altitude 10° 22:36:29 10° 177° (S) 2,322 6.7 -12.4°
Maximum altitude 22:41:32 49° 104° (ESE) 990 4.2 -13.3°
Enters shadow 22:46:27 10° 31° (NNE) 2,260 6.0 -14.2°
